Regional Weather Roundup
Issued by NWS

Home | Current Version | Previous Version | Graphics & Text | Print | Product List | Glossary Off
Versions: 1 2 3 4 5 6 7 8 9 10 11 12 13 14 15 16 17 18 19 20 21 22 23 24 25 26 27 28 29 30 31 32 33 34 35 36 37 38 39 40 41 42 43 44 45 46 47 48 49 50

000
ASUS43 KDTX 290210
RWRMI
MICHIGAN HOURLY REGIONAL WEATHER ROUNDUP
NATIONAL WEATHER SERVICE DETROIT/PONTIAC MI
1000 PM EDT THU APR 28 2016

NOTE: "FAIR" INDICATES FEW OR NO CLOUDS BELOW 12,000 FEET WITH NO
SIGNIFICANT WEATHER AND/OR OBSTRUCTION TO VISIBILITY.

MIZ047>049-052>055-059>063-066>070-074>076-081>083-290300-
SOUTHEAST LOWER MICHIGAN

CITY           SKY/WX    TMP DP  RH WIND       PRES   REMARKS
ADRIAN         CLOUDY    46  35  65 E13       30.00R
ALMA           CLOUDY    40  35  83 NE10G16   30.06R WCI  33
ANN ARBOR      CLOUDY    48  32  53 E8        30.00R
BAD AXE        CLOUDY    39  31  73 NE6       30.07R WCI  34
CARO           CLOUDY    41  31  67 NE6       30.05R
DETROIT CITY   CLOUDY    47  29  49 NE7       30.02R
DETROIT        CLOUDY    49  30  48 N7        30.01R
FLINT          CLOUDY    48  28  46 E13       30.03R
GROSSE ILE     CLOUDY    46  34  61 NE6       30.00R
HILLSDALE      CLOUDY    45  36  69 NE3       30.00R
HOWELL         CLOUDY    46  29  52 E6        30.01R

CITY           SKY/WX    TMP DP  RH WIND       PRES   REMARKS
JACKSON        CLOUDY    45  35  68 NE3       30.01R
LAMBERTVILLE   CLOUDY    49  35  60 E10G17    29.99R
LANSING        CLOUDY    43  37  79 NE8       30.03R
LAPEER         CLOUDY    42  31  67 NE5       30.04R
MASON          CLOUDY    45  33  63 NE5       30.01R
MONROE         CLOUDY    48  34  58 E5        29.99S
PONTIAC        CLOUDY    46  26  45 NE9       30.01R
PORT HOPE        N/A     40  33  76 NE12      30.05S WCI  33
PORT HURON     CLOUDY    43  32  65 NE7       30.03R
TRI CITIES     CLOUDY    42  34  73 NE14      30.07R
MIDLAND        CLOUDY    40  33  77 NE8       30.07R WCI  34
TROY           CLOUDY    47  28  46 NE9       30.03R
SAGINAW HB     CLOUDY    41  32  70 NE10      30.06R
$$
MIZ043>046-050>051-056>058-064>065-071>073-077>080-290300-
SOUTHWEST LOWER MICHIGAN

CITY           SKY/WX    TMP DP  RH WIND       PRES   REMARKS
BATTLE CREEK   CLOUDY    46  33  60 E7        30.01R
BENTON HARBOR  CLOUDY    49  42  77 E10       29.97R
BIG RAPIDS     CLOUDY    41  30  65 E7        30.05R
COLDWATER      CLOUDY    46  37  69 E7        30.00R
FREMONT        CLOUDY    41  34  75 E8        30.04R
HOLLAND        CLOUDY    44  36  73 E7        30.02R
GRAND RAPIDS   CLOUDY    44  37  76 E9        30.04R
IONIA          CLOUDY    40  35  81 NE8       30.03R
KALAMAZOO      CLOUDY    47  36  65 E6        30.00R
LUDINGTON      CLOUDY    43  34  70 E3        30.06R
MARSHALL       CLOUDY    45  36  70 CALM      30.01R
MOUNT PLEASANT CLOUDY    39  34  81 NE7       30.06R WCI  34
MUSKEGON       CLOUDY    43  35  73 E8        30.04R
SOUTH HAVEN    CLOUDY    45  41  86 E8        29.99S
$$
MIZ016>042-290300-
NORTHERN LOWER MICHIGAN

CITY           SKY/WX    TMP DP  RH WIND       PRES   REMARKS
ALPENA         MOCLDY    39  22  50 CALM      30.10R
BEAVER ISLAND  PTCLDY    41  25  53 NE7       30.08S
BELLAIRE       CLOUDY    49  26  40 E5        30.07R
CADILLAC       CLOUDY    40  32  74 E9        30.03R WCI  33
CHARLEVOIX     PTCLDY    45  25  44 E5        30.10R
GAYLORD        MOCLDY    43  22  43 E6        30.06R
GRAYLING       CLOUDY    43  26  51 E5        30.07R
HARBOR SPRINGS CLOUDY    41  22  46 E6        30.07S
HOUGHTON LAKE  CLOUDY    41  27  57 NE9       30.05S
MANISTEE       CLOUDY    45  28  53 E12       30.06S
OSCODA         CLOUDY    40  27  59 N6        30.08R
PELLSTON       PTCLDY    39  22  50 E6        30.09R WCI  35
ROGERS CITY    PTCLDY    36  31  83 CALM      30.10S
TRAVERSE CITY  LGT RAIN  46  35  65 S5        30.05R
$$
MIZ007>008-015-290300-
EASTERN UPPER MICHIGAN

CITY           SKY/WX    TMP DP  RH WIND       PRES   REMARKS
KINROSS          N/A     43  28  56 CALM      30.10S
MACKINAC ISLAN PTCLDY    37  25  60 NE7       30.10R WCI  32
NEWBERRY       CLOUDY    40  31  69 CALM      30.10R
S. S. MARIE    PTCLDY    40  30  67 CALM      30.10R
MUNISING         N/A     38  33  82 N7        30.11S WCI  33
$$
MIZ004>006-011>014-085-290300-
CENTRAL UPPER MICHIGAN

CITY           SKY/WX    TMP DP  RH WIND       PRES   REMARKS
MANISTIQUE     CLOUDY    39  26  58 N5        30.09R
ESCANABA       CLOUDY    46  27  46 NE7       30.10R
MENOMINEE      CLOUDY    43  28  56 N5        30.08R
SAWYER-GWINN   CLEAR     34  28  80 N8        30.09R WCI  27
$$
MIZ001>003-009>011-084-290300-
WESTERN UPPER MICHIGAN

CITY           SKY/WX    TMP DP  RH WIND       PRES   REMARKS
IRON MOUNTAIN  CLOUDY    44  26  49 N5        30.08R
HOUGHTON       CLEAR     35  27  72 E3        30.11R
COPPER HARBOR    N/A     35  31  85 SW3       30.13S
IRONWOOD       CLOUDY    37  28  70 CALM      30.08R
$$

ABBREVIATIONS USED IN REMARKS
   TC - TEMPERATURE IN CELSIUS
  WCI - WIND CHILL INDEX
   HX - HEAT INDEX
  VSB - VISIBILITY





USA.gov is the U.S. government's official web portal to all federal, state and local government web resources and services.